User: anonymous   Login
Location: Newark
(35.0317°N, 117.3481°W)
Time: 01:57:22
(UTC+00:00)
Language:

DOVE 4 - Orbit

View from above orbital plane
View from above orbital plane
View from above satellite
View from above satellite

Ground track
Ground track

The orbit data is extracted from the following two-line orbital elements,

1 39430U 13066Q   19342.75711940  .00000198  00000-0  44359-4 0  9995
2 39430  97.7696 288.1044 0152404  68.7153 293.0248 14.59319908321843
Epoch (UTC): 08 December 2019 18:10:15
Eccentricity: 0.0152404
inclination: 97.7696°
perigee height: 587 km
apogee height: 803 km
right ascension of ascending node: 288.1044°
argument of perigee: 68.7153°
revolutions per day: 14.59319908
mean anomaly at epoch: 293.0248°
orbit number at epoch: 32184

The dashed part of the orbit path shows where the satellite is in the earth's shadow,  

DLR